Weather History for Cross City, FL

Change the Weather History Date:

Sunday, February 3, 2013

  Actual Average Record
Temperature  
Mean Temperature 50 °F 55 °F  
Max Temperature 69 °F 68 °F 80 °F (2014)
Min Temperature 31 °F 42 °F 31 °F (2013)
Degree Days  
Heating Degree Days 15 10  
Month to date heating degree days 50 30  
Since 1 July heating degree days 656 908  
Cooling Degree Days 0 1  
Month to date cooling degree days 0 3  
Year to date cooling degree days 51 14  
Moisture  
Dew Point 34 °F    
Average Humidity 62    
Maximum Humidity 92    
Minimum Humidity 18    
Precipitation  
Precipitation 0.00 in 0.11 in 1.24 in (2006)
Month to date precipitation 0.00 0.34  
Year to date precipitation 0.58 4.38  
Sea Level Pressure  
Sea Level Pressure 30.15 in    
Wind  
Wind Speed 4 mph (NW)    
Max Wind Speed 14 mph    
Max Gust Speed 20 mph    
T = Trace of Precipitation, MM = Missing Value Source: NWS Daily Summary

Daily Weather History Graph

Daily Weather History Graph

Search for Another Location

Airport:

Trip Planner

Search our weather history database for the weather conditions in past years. The results will help you decide how hot, cold, wet, or windy it might be!

Date:

Astronomy

Feb. 03, 2013 Rise Set
Actual Time 7:20 AM EST 6:12 PM EST
Civil Twilight 6:55 AM EST 6:37 PM EST
Nautical Twilight 6:27 AM EST 7:05 PM EST
Astronomical Twilight 5:59 AM EST 7:33 PM EST
Moon 12:46 AM EST (2/3) 11:51 AM EST (2/3)
Length of Visible Light 11h 41m
Length of Day
10h 51m
Waning Gibbous, 49% of the Moon is Illuminated
Feb 3
Waning Gibbous
Feb 10
New
Feb 17
First Quarter
Feb 25
Full
Mar 4
Last Quarter

Hourly Weather History & Observations

Time (EST) Temp. Dew Point Humidity Pressure Visibility Wind Dir Wind Speed Gust Speed Precip Events Conditions
12:53 AM 33.1 °F 28.9 °F 85% 30.19 in - Calm Calm - N/A   Unknown
1:53 AM 33.1 °F 30.0 °F 89% 30.16 in - Calm Calm - N/A   Unknown
2:53 AM 32.0 °F 28.9 °F 88% 30.16 in - Calm Calm - N/A   Unknown
3:53 AM 32.0 °F 28.9 °F 88% 30.16 in - Calm Calm - N/A   Unknown
4:53 AM 32.0 °F 28.9 °F 88% 30.17 in - Calm Calm - N/A   Unknown
5:53 AM 33.1 °F 30.0 °F 89% 30.17 in - Calm Calm - N/A   Unknown
6:53 AM 34.0 °F 30.9 °F 89% 30.18 in - Calm Calm - N/A   Unknown
7:53 AM 37.0 °F 35.1 °F 93% 30.19 in - Calm Calm - N/A   Unknown
8:53 AM 50.0 °F 44.1 °F 80% 30.22 in - North 6.9 mph - N/A   Unknown
9:53 AM 55.9 °F 41.0 °F 57% 30.22 in - North 6.9 mph - N/A   Unknown
10:53 AM 59.0 °F 36.0 °F 42% 30.22 in - NNE 10.4 mph - N/A   Unknown
11:53 AM 63.0 °F 33.1 °F 33% 30.19 in - North 8.1 mph - N/A   Unknown
12:53 PM 64.9 °F 32.0 °F 29% 30.16 in - Variable 3.5 mph - N/A   Unknown
1:53 PM 68.0 °F 27.0 °F 21% 30.12 in - WNW 10.4 mph - N/A   Unknown
2:53 PM 69.1 °F 24.1 °F 18% 30.10 in - NW 9.2 mph 19.6 mph N/A   Unknown
3:53 PM 68.0 °F 30.9 °F 25% 30.09 in - WNW 10.4 mph - N/A   Unknown
4:53 PM 64.0 °F 35.1 °F 34% 30.09 in - West 12.7 mph - N/A   Unknown
5:53 PM 60.1 °F 33.1 °F 36% 30.11 in - West 8.1 mph - N/A   Unknown
6:53 PM 53.1 °F 35.1 °F 50% 30.10 in - West 4.6 mph - N/A   Unknown
7:53 PM 52.0 °F 41.0 °F 66% 30.12 in - West 6.9 mph - N/A   Unknown
8:53 PM 51.1 °F 43.0 °F 74% 30.13 in - West 4.6 mph - N/A   Unknown
9:53 PM 45.0 °F 41.0 °F 86% 30.14 in - Calm Calm - N/A   Unknown
10:53 PM 42.1 °F 37.9 °F 85% 30.14 in - Calm Calm - N/A   Unknown
11:53 PM 39.9 °F 36.0 °F 86% 30.13 in - Calm Calm - N/A   Unknown